Weather History for Coatesville, PA

Change the Weather History Date:

Wednesday, February 13, 2013

  Actual Average (KLNS) Record (KLNS)
Temperature  
Mean Temperature 36 °F -  
Max Temperature 42 °F 35 °F 56 °F (1990)
Min Temperature 30 °F 19 °F -7 °F (1983)
Degree Days  
Heating Degree Days 29    
Moisture  
Dew Point 28 °F    
Average Humidity 77    
Maximum Humidity 100    
Minimum Humidity 57    
Precipitation  
Precipitation 3.49 in - - ()
Sea Level Pressure  
Sea Level Pressure 29.81 in    
Wind  
Wind Speed 4 mph (NE)    
Max Wind Speed 10 mph    
Max Gust Speed -    
Visibility 8 miles    
Events Snow    
Averages and records for this station are not official NWS values.
T = Trace of Precipitation, MM = Missing Value Source: NWS Daily Summary

Daily Weather History Graph

Daily Weather History Graph

Search for Another Location

Airport:

Trip Planner

Search our weather history database for the weather conditions in past years. The results will help you decide how hot, cold, wet, or windy it might be!

Date:

Astronomy

Feb. 13, 2013 Rise Set
Actual Time 6:58 AM EST 5:37 PM EST
Civil Twilight 6:30 AM EST 6:05 PM EST
Nautical Twilight 5:58 AM EST 6:37 PM EST
Astronomical Twilight 5:27 AM EST 7:08 PM EST
Moon 8:26 AM EST (2/13) 9:37 PM EST (2/13)
Length of Visible Light 11h 34m
Length of Day
10h 38m
Waxing Crescent, 13% of the Moon is Illuminated
Feb 13
Waxing Crescent
Feb 17
First Quarter
Feb 25
Full
Mar 4
Last Quarter
Mar 11
New

Hourly Weather History & Observations

Time (EST) Temp. Windchill Dew Point Humidity Pressure Visibility Wind Dir Wind Speed Gust Speed Precip Events Conditions
12:15 AM 32.0 °F - 24.8 °F 75% 29.97 in 10.0 mi Calm Calm - N/A   Clear
12:35 AM 32.0 °F 28.7 °F 26.6 °F 80% 29.97 in 10.0 mi WNW 3.5 mph - N/A   Clear
12:55 AM 32.0 °F 28.7 °F 26.6 °F 80% 29.97 in 10.0 mi WNW 3.5 mph - N/A   Clear
1:15 AM 32.0 °F 28.7 °F 24.8 °F 75% 29.97 in 10.0 mi NW 3.5 mph - N/A   Clear
1:35 AM 32.0 °F 28.7 °F 24.8 °F 75% 29.97 in 10.0 mi WNW 3.5 mph - N/A   Clear
1:55 AM 30.2 °F 25.4 °F 24.8 °F 80% 29.96 in 10.0 mi North 4.6 mph - N/A   Clear
2:15 AM 30.2 °F 24.3 °F 24.8 °F 80% 29.95 in 10.0 mi North 5.8 mph - N/A   Clear
2:35 AM 30.2 °F 23.4 °F 24.8 °F 80% 29.95 in 10.0 mi North 6.9 mph - N/A   Clear
2:55 AM 32.0 °F 27.5 °F 24.8 °F 75% 29.93 in 10.0 mi North 4.6 mph - N/A   Clear
3:15 AM 32.0 °F 26.4 °F 24.8 °F 75% 29.91 in 10.0 mi North 5.8 mph - N/A   Clear
3:35 AM 32.0 °F 28.7 °F 24.8 °F 75% 29.91 in 10.0 mi NNE 3.5 mph - N/A   Clear
3:55 AM 32.0 °F - 24.8 °F 75% 29.91 in 10.0 mi Calm Calm - N/A   Clear
4:15 AM 32.0 °F - 24.8 °F 75% 29.92 in 10.0 mi Calm Calm - N/A   Clear
4:35 AM 32.0 °F - 24.8 °F 75% 29.92 in 10.0 mi Calm Calm - N/A   Clear
4:55 AM 30.2 °F - 24.8 °F 80% 29.91 in 10.0 mi Calm Calm - N/A   Clear
5:15 AM 30.2 °F - 23.0 °F 75% 29.91 in 10.0 mi Calm Calm - N/A   Clear
5:35 AM 30.2 °F 26.7 °F 23.0 °F 75% 29.91 in 10.0 mi North 3.5 mph - N/A   Clear
5:55 AM 32.0 °F 27.5 °F 24.8 °F 75% 29.90 in 10.0 mi North 4.6 mph - N/A   Clear
6:15 AM 32.0 °F 28.7 °F 24.8 °F 75% 29.89 in 10.0 mi NNE 3.5 mph - N/A   Clear
6:35 AM 32.0 °F - 24.8 °F 75% 29.90 in 10.0 mi Calm Calm - N/A   Clear
6:55 AM 32.0 °F 25.6 °F 24.8 °F 75% 29.90 in 10.0 mi East 6.9 mph - N/A   Clear
7:15 AM 32.0 °F - 24.8 °F 75% 29.90 in 10.0 mi Calm Calm - N/A   Clear
7:35 AM 30.2 °F - 24.8 °F 80% 29.89 in 10.0 mi Calm Calm - N/A   Clear
7:55 AM 32.0 °F 27.5 °F 26.6 °F 80% 29.89 in 10.0 mi East 4.6 mph - N/A   Clear
8:15 AM 32.0 °F 28.7 °F 26.6 °F 80% 29.89 in 9.0 mi ESE 3.5 mph - N/A   Clear
8:35 AM 32.0 °F 27.5 °F 26.6 °F 80% 29.88 in 10.0 mi East 4.6 mph - N/A   Clear
8:55 AM 33.8 °F 27.7 °F 26.6 °F 75% 29.88 in 10.0 mi East 6.9 mph - N/A   Mostly Cloudy
9:15 AM 33.8 °F 27.7 °F 26.6 °F 75% 29.87 in 10.0 mi East 6.9 mph - N/A   Mostly Cloudy
9:35 AM 35.6 °F 30.7 °F 26.6 °F 70% 29.88 in 10.0 mi East 5.8 mph - N/A   Mostly Cloudy
9:55 AM 35.6 °F 29.9 °F 26.6 °F 70% 29.88 in 10.0 mi ESE 6.9 mph - N/A   Mostly Cloudy
10:15 AM 37.4 °F 32.1 °F 26.6 °F 65% 29.89 in 10.0 mi ESE 6.9 mph - N/A   Mostly Cloudy
10:35 AM 37.4 °F 30.3 °F 26.6 °F 65% 29.87 in 10.0 mi East 10.4 mph - N/A   Mostly Cloudy
10:55 AM 37.4 °F 32.1 °F 26.6 °F 65% 29.87 in 10.0 mi SE 6.9 mph - N/A   Scattered Clouds
11:15 AM 39.2 °F 35.9 °F 26.6 °F 61% 29.86 in 10.0 mi ENE 4.6 mph - N/A   Scattered Clouds
11:35 AM 39.2 °F 34.2 °F 26.6 °F 61% 29.85 in 10.0 mi ESE 6.9 mph - N/A   Mostly Cloudy
11:55 AM 39.2 °F 35.9 °F 26.6 °F 61% 29.83 in 10.0 mi ENE 4.6 mph - N/A   Partly Cloudy
12:15 PM 39.2 °F 34.2 °F 26.6 °F 61% 29.81 in 10.0 mi ENE 6.9 mph - N/A   Scattered Clouds
12:35 PM 39.2 °F 34.2 °F 26.6 °F 61% 29.81 in 10.0 mi East 6.9 mph - N/A   Scattered Clouds
12:55 PM 42.8 °F 37.5 °F 28.4 °F 57% 29.77 in 10.0 mi East 9.2 mph - N/A   Scattered Clouds
1:15 PM 42.8 °F 38.0 °F 28.4 °F 57% 29.77 in 10.0 mi East 8.1 mph - N/A   Partly Cloudy
1:55 PM 42.8 °F - 28.4 °F 57% 29.77 in 10.0 mi Calm Calm - N/A   Clear
2:15 PM 42.8 °F 39.3 °F 28.4 °F 57% 29.74 in 10.0 mi East 5.8 mph - N/A   Clear
2:35 PM 42.8 °F 38.6 °F 28.4 °F 57% 29.74 in 10.0 mi East 6.9 mph - N/A   Clear
2:55 PM 42.8 °F 38.6 °F 28.4 °F 57% 29.73 in 10.0 mi East 6.9 mph - N/A   Mostly Cloudy
3:15 PM 42.8 °F 40.1 °F 28.4 °F 57% 29.72 in 10.0 mi NNE 4.6 mph - N/A   Mostly Cloudy
3:35 PM 42.8 °F 41.1 °F 28.4 °F 57% 29.71 in 10.0 mi NE 3.5 mph - N/A   Mostly Cloudy
3:55 PM 42.8 °F 40.1 °F 28.4 °F 57% 29.69 in 10.0 mi NE 4.6 mph - N/A   Mostly Cloudy
4:15 PM 41.0 °F - 28.4 °F 61% 29.69 in 10.0 mi Calm Calm - N/A   Overcast
4:35 PM 41.0 °F 38.0 °F 28.4 °F 61% 29.68 in 10.0 mi NE 4.6 mph - N/A   Overcast
4:55 PM 39.2 °F 34.2 °F 28.4 °F 65% 29.68 in 10.0 mi NE 6.9 mph - N/A   Overcast
5:15 PM 39.2 °F 35.9 °F 28.4 °F 65% 29.68 in 10.0 mi NE 4.6 mph - N/A   Overcast
5:35 PM 39.2 °F - 28.4 °F 65% 29.69 in 10.0 mi Calm Calm - N/A   Overcast
5:55 PM 39.2 °F 37.0 °F 30.2 °F 70% 29.69 in 10.0 mi NE 3.5 mph - N/A   Overcast
6:15 PM 37.4 °F 32.8 °F 32.0 °F 81% 29.70 in 5.0 mi East 5.8 mph - N/A Snow Light Snow
6:35 PM 35.6 °F 31.7 °F 32.0 °F 87% 29.71 in 2.0 mi NNE 4.6 mph - 0.09 in Snow Light Snow
6:55 PM 33.8 °F 30.8 °F 33.8 °F 100% 29.71 in 2.5 mi NNE 3.5 mph - 0.20 in Snow Light Snow
7:15 PM 33.8 °F 27.7 °F 33.8 °F 100% 29.70 in 1.5 mi North 6.9 mph - 0.15 in Snow Snow
7:35 PM 33.8 °F 28.6 °F 33.8 °F 100% 29.70 in 1.0 mi North 5.8 mph - 0.42 in Snow Snow
7:55 PM 33.8 °F 28.6 °F 33.8 °F 100% 29.70 in 1.0 mi North 5.8 mph - 0.75 in Snow Light Snow
8:15 PM 33.8 °F 28.6 °F 33.8 °F 100% 29.70 in 1.2 mi North 5.8 mph - 0.10 in Snow Light Snow
8:35 PM 33.8 °F 29.6 °F 33.8 °F 100% 29.71 in 1.2 mi North 4.6 mph - 0.24 in Snow Light Snow
8:55 PM 33.8 °F 29.6 °F 33.8 °F 100% 29.71 in 0.8 mi North 4.6 mph - 0.85 in Snow Snow
9:15 PM 33.8 °F 29.6 °F 33.8 °F 100% 29.70 in 0.8 mi North 4.6 mph - 0.49 in Snow Snow
9:35 PM 33.8 °F 29.6 °F 33.8 °F 100% 29.70 in 1.0 mi North 4.6 mph - 0.92 in Snow Light Snow
9:55 PM 33.8 °F 29.6 °F 33.8 °F 100% 29.71 in 1.2 mi North 4.6 mph - 1.17 in Snow Light Snow
10:15 PM 33.8 °F 29.6 °F 33.8 °F 100% 29.71 in 2.0 mi North 4.6 mph - 0.03 in Snow Light Snow
10:35 PM 33.8 °F 29.6 °F 33.8 °F 100% 29.71 in 1.8 mi North 4.6 mph - 0.07 in Snow Light Snow
10:55 PM 33.8 °F 29.6 °F 33.8 °F 100% 29.72 in 2.5 mi NNW 4.6 mph - 0.14 in Snow Light Snow
11:15 PM 33.8 °F 28.6 °F 33.8 °F 100% 29.72 in 1.2 mi NNW 5.8 mph - 0.17 in Snow Light Snow
11:35 PM 33.8 °F 27.7 °F 33.8 °F 100% 29.73 in 1.8 mi NW 6.9 mph - 0.32 in Snow Light Snow
11:55 PM 33.8 °F 27.7 °F 33.8 °F 100% 29.73 in 2.5 mi NW 6.9 mph - 0.38 in Snow Light Snow